Location: ????????
(55.3975°N, 38.2844°E)
Time: 05:32:32
(UTC+00:00)

BlueWalker 3 - Pass Details

Date: 18 August 2024
Orbit: 476 x 487 km, 53.2° (Epoch: 08 September)

Event Time Altitude Azimuth Distance (km) Brightness Sun altitude
Exits shadow 22:13:28 30° 104° (ESE) 909 3.1 -21.3°
Drops below altitude 10° 22:15:36 10° 90° (E) 1,695 4.7 -21.2°
Sets 22:17:47 0° 86° (E) 2,571 5.8 -21.2°
